Home > Weather > St. Louis > Past weeks

Flag for U.S.A. Weather for the Past 2 Weeks in St. Louis, Missouri, U.S.A.

Now
41 °F

Scattered clouds.


Feels Like: 41 °F
Forecast: 28 / 41 °F
Wind: No wind

Location: Lambert-St. Louis International Airport

Current Time: Feb 5, 2016 at 4:59:19 PM

Latest Report: Feb 5, 2016 at 3:51 PM


Visibility: 10 mi

Pressure: 30.40 "Hg

Humidity: 35%

Dew point: 15 °F

Location of St. LouisLocation

Historic Weather in St. Louis — Graph

°F

St. Louis Temperature Yesterday

Maximum temperature yesterday: 43 °F (at 3:51 PM)
Minimum temperature yesterday: 22 °F (at 6:51 AM)
Average temperature yesterday: 33 °F

High & Low Weather Summary for the Past Weeks

 TemperatureHumidityPressure
High67 °F (Jan 31, 11:51 AM)93% (Feb 2, 10:51 AM)30.48 "Hg (Feb 2, 10:51 AM)
Low21 °F (Jan 22, 6:51 AM)30% (Feb 4, 4:51 PM)29.44 "Hg (Feb 2, 2:51 PM)
Average40 °F62%30.02 "Hg
* Reported Jan 21 2:51 PM — Feb 5 2:51 PM, St. Louis, Weather by CustomWeather, © 2016

Note: Actual official high and low records may vary slightly from our data, if they occured in-between our weather recording intervals... More about our weather records

Advertising

St. Louis Weather History for the Previous 24 Hours

 ConditionsComfort  
Time TempWeatherWind HumidityBarometerVisibility
2:51 PM
Fri, Feb 5
39 °FPartly sunny.5 mph34%30.41 "Hg10 mi
1:51 PM41 °FPartly sunny.3 mph35%30.41 "Hg10 mi
12:51 PM40 °FPartly sunny.3 mph41%30.43 "Hg10 mi
11:51 AM39 °FPartly sunny.5 mph46%30.46 "Hg10 mi
10:51 AM36 °FPartly sunny.6 mph57%30.48 "Hg10 mi
9:51 AM33 °FPartly sunny.No wind63%30.48 "Hg10 mi
8:51 AM31 °FPartly sunny.5 mph69%30.47 "Hg10 mi
7:51 AM29 °FPartly sunny.No wind72%30.46 "Hg10 mi
6:51 AM28 °FPassing clouds.6 mph75%30.44 "Hg10 mi
5:51 AM28 °FClear.7 mph75%30.42 "Hg10 mi
4:51 AM29 °FClear.7 mph69%30.40 "Hg10 mi
3:51 AM30 °FClear.7 mph64%30.38 "Hg10 mi
2:51 AM30 °FClear.7 mph59%30.37 "Hg10 mi
1:51 AM32 °FClear.8 mph54%30.34 "Hg10 mi
12:51 AM32 °FClear.8 mph52%30.35 "Hg10 mi
11:51 PM
Thu, Feb 4
32 °FClear.8 mph52%30.35 "Hg10 mi
10:51 PM32 °FClear.7 mph52%30.36 "Hg10 mi
9:51 PM31 °FClear.5 mph59%30.36 "Hg10 mi
8:51 PM32 °FClear.3 mph56%30.36 "Hg10 mi
7:51 PM34 °FClear.No wind48%30.36 "Hg10 mi
6:51 PM37 °FClear.3 mph41%30.35 "Hg10 mi
5:51 PM39 °FClear.6 mph36%30.34 "Hg10 mi
4:51 PM42 °FPassing clouds.10 mph30%30.32 "Hg10 mi
Weather by CustomWeather, © 2016

See weather overviewHow to use our weather pages